Miscellaneous Local Product
Issued by NWS North Platte, NE

Home | Current Version | Previous Version | Graphics & Text | Print | Product List | Glossary On
Versions: 1 2 3 4 5 6 7 8 9 10 11 12 13 14 15 16 17 18 19 20 21 22 23 24 25 26 27 28 29 30 31 32 33 34 35 36 37 38 39 40 41 42 43 44 45 46 47 48 49 50
000
AXUS43 KLBF 200710
MISLBF


WESTERN AND NORTH CENTRAL NEBRASKA HOURLY WEATHER ROUNDUP
NATIONAL WEATHER SERVICE NORTH PLATTE NE
200 AM CDT WED AUG 20 2014

***STATIONS NOT REPORTING VARIABLES SUCH AS SKY/WEATHER OR
PRESSURE ARE PROVIDED BY THE NEBRASKA DEPARTMENT OF
ROADS...RAWS...AND APRS NETWORKS...AND ARE NOT UNDER
NATIONAL WEATHER SERVICE QUALITY CONTROL***

...OBSERVATIONS IN AND NEAR THE EASTERN PANHANDLE OF NEBRASKA...

CITY           SKY/WX    TMP DP  RH WIND       PRES   REMARKS
PINE RIDGE     CLOUDY    72  60  66 SE9       29.78S
CHADRON        CLOUDY    75  52  44 S12       29.76F
ALLIANCE       CLOUDY    66  57  72 CALM      29.83S
SIDNEY         MOCLDY    63  59  87 W6        29.85F
WHITECLAY        N/A     71  57  62 S12         N/A
RUSHVILLE        N/A     68  56  66 SE7         N/A
GORDON           N/A     73  65  75 E10         N/A
CRESCENT LAKE    N/A     63  57  82 N6          N/A
LISCO            N/A     67  58  72 W10         N/A
BIG SPRINGS      N/A     65  63  92 NE3         N/A
$$

...OBSERVATIONS IN NORTH CENTRAL NEBRASKA...

CITY           SKY/WX    TMP DP  RH WIND       PRES   REMARKS
VALENTINE      MOCLDY    75  65  70 SW3       29.77F
THEDFORD       CLOUDY    70  61  74 S9        29.83S
AINSWORTH      LGT RAIN  71  68  90 SE13      29.78F
O`NEILL        CLOUDY    72  67  84 SE12      29.78F
ORD            CLOUDY    73  68  84 S6        29.77F
BROKEN BOW     CLOUDY    73  68  84 SW3       29.80F
BROWNLEE         N/A     74  59  59 W5          N/A
SPRINGVIEW       N/A     74  67  77 S14G22      N/A
ROSE             N/A     78  74  88 E10         N/A
NEWPORT          N/A     74  70  88 SW13        N/A
SARGENT          N/A     73  69  87 CALM        N/A
COMSTOCK         N/A     79  74  83 S7          N/A
CHAMBERS         N/A     72  66  81 MISG        N/A
EWING            N/A     70  66  88 CALM        N/A
$$

...OBSERVATIONS IN SOUTHWEST NEBRASKA AND FAR NORTHEAST COLORADO...

CITY           SKY/WX    TMP DP  RH WIND       PRES   REMARKS
WRAY             N/A     69  61  77 E7        29.84S
IMPERIAL       CLOUDY    68  62  81 N5        29.84R
OGALLALA       CLOUDY    65  63  90 SE8       29.79S
NORTH PLATTE   LGT RAIN  70  62  76 N8        29.78F
MCCOOK         CLOUDY    73  63  70 E5        29.80F
LEXINGTON      LGT RAIN  74  66  77 CALM      29.80F
PAXTON           N/A     67  64  89 CALM        N/A
SUTHERLAND       N/A     67  64  91 E5          N/A
BRADY            N/A     69  64  84 CALM        N/A
GOTHENBURG       N/A     76  60  58 NW6         N/A
CALLAWAY         N/A     73  67  82 W7          N/A
$$

...SOME WEATHER OBSERVATIONS FROM AROUND THE REGION...

CITY           SKY/WX    TMP DP  RH WIND       PRES   REMARKS
DENVER         MOCLDY    68  51  54 S3        29.93S
LARAMIE        LGT RAIN  55  52  89 SW12      30.06R
CHEYENNE       CLOUDY    60  52  74 W7        29.97S
SCOTTSBLUFF    MOCLDY    69  56  62 SE7       29.83F
RAPID CITY     CLOUDY    71  56  58 S10       29.75S
PIERRE         TSTM      66  62  87 S17       29.77S
WINNER         FAIR      73  66  78 E9        29.73F
SIOUX FALLS    CLEAR     67  63  87 SE5       29.80F
OMAHA          MOCLDY    74  65  73 SE6       29.81S
GRAND ISLAND   CLOUDY    75  67  76 SE8       29.78F
KANSAS CITY    PTCLDY    76  69  79 SW8       29.83S
WICHITA        PTCLDY    77  68  73 S8        29.85S
HAYS           PTCLDY    79  61  53 S16G23    29.81S
LIBERAL        CLEAR     75  59  57 S16       29.89F
GOODLAND       CLOUDY    76  58  53 S13       29.84F
$$



USA.gov is the U.S. government's official web portal to all federal, state and local government web resources and services.